Helicity
168 241 223 193 226 276 294 337 386 395 405 399 422 451 400 402 336 348 338 286 301 286
146 183 155 127 204 246 259 294 324 394 397 397 393 408 415 385 345 327 306 296 287 293
188 176 196 188 199 201 242 271 326 344 363 393 388 376 366 344 324 331 315 300 285 285
576 511 453 382 345 179 206 241 293 301 306 378 352 329 292 318 348 314 293 286 265 233
782 743 615 615 536 497 464 334 269 299 293 284 288 263 307 306 332 240 321 306 294 241
1048 931 870 713 694 607 687 702 700 493 431 337 262 190 191 205 229 219 280 247 266 249
859 975 907 877 900 836 674 726 617 865 412 420 523 315 147 178 254 192 168 283 77 213
857 845 777 717 601 775 781 677 543 576 526 345 354 308 342 327 264 196 82 210 198 126
357 388 311 597 680 582 668 699 654 386 439 299 309 286 381 254 305 237 254 114 84 92
18 30 82 273 333 399 386 495 573 473 427 474 265 196 254 215 224 204 216 295 342 178
-31 -10 -29 4 31 107 246 223 184 368 476 184 143 211 200 239 226 198 102 119 152 165
-16 -11 -9 -14 -12 -16 2 99 155 128 149 413 299 99 223 267 235 176 158 178 177 198
-36 -25 1 -11 3 -2 3 -1 -1 30 86 57 67 176 140 114 173 185 175 157 164 152
-28 -19 -12 4 -4 1 9 27 23 30 22 39 44 62 58 58 67 139 162 168 181 159
Wind_Speed
61 62 62 58 58 57 57 58 61 63 67 70 66 64 63 61 57 55 57 54 54 57
58 59 56 58 53 54 55 57 59 61 64 68 68 65 63 63 62 58 57 60 59 60
59 57 57 59 58 53 54 54 57 61 62 66 65 64 63 64 62 62 60 60 63 63
34 42 45 51 55 58 54 54 54 56 62 63 64 63 63 62 60 62 61 62 61 62
22 28 34 38 45 49 54 58 51 52 57 58 58 53 60 63 65 62 64 62 65 71
20 25 28 29 33 35 38 43 52 51 59 58 57 59 57 59 65 66 59 54 65 66
23 28 29 28 33 30 30 34 38 51 47 51 59 59 68 53 39 61 60 56 65 74
26 30 32 30 29 31 33 36 31 38 31 31 31 44 52 43 47 50 52 46 35 55
30 32 33 35 37 37 35 39 41 44 44 31 38 42 32 35 38 39 48 49 40 40
34 34 36 37 41 42 40 38 41 42 44 42 44 38 38 37 35 41 49 53 48 50
44 46 47 43 46 45 47 48 50 49 47 45 43 45 45 46 45 47 47 42 41 48
49 49 47 48 50 50 56 56 56 56 58 62 59 50 50 52 49 50 51 52 51 50
53 54 54 53 57 56 58 59 61 64 62 61 67 65 61 57 53 58 57 57 58 59
62 62 62 64 62 63 65 66 69 69 67 68 67 68 68 63 60 62 62 62 63 64
Wind_Direction
231 235 240 237 237 236 234 232 232 230 234 236 235 235 236 240 238 236 239 241 240 248
234 235 237 239 239 240 239 242 239 232 232 235 236 237 237 241 243 241 239 240 247 249
240 238 242 244 243 243 243 243 241 235 237 234 234 237 237 240 243 243 243 246 248 250
252 245 249 249 249 249 245 243 240 236 237 234 235 235 237 241 243 242 244 246 248 248
270 261 254 262 261 260 255 255 241 236 231 233 233 227 237 241 245 243 244 246 249 253
296 286 277 274 274 271 265 265 261 246 241 231 237 242 241 246 246 241 243 243 249 251
312 301 295 289 279 279 280 278 277 267 261 266 261 254 247 246 235 244 247 253 256 253
311 306 300 295 294 287 285 280 286 284 282 267 280 255 241 254 254 250 254 257 246 246
316 309 308 306 303 294 293 289 284 281 277 278 292 274 288 285 275 271 268 266 261 254
314 312 287 309 302 295 290 289 289 284 289 295 282 294 291 291 286 282 278 277 269 268
314 305 307 305 298 299 294 287 284 288 288 277 290 295 292 291 284 285 284 283 278 279
315 305 302 303 293 296 291 292 289 286 282 279 282 288 291 287 288 288 286 285 283 282
306 310 306 301 299 293 294 290 287 285 284 281 278 279 285 287 289 285 285 285 284 282
311 307 304 301 300 294 295 290 283 284 281 281 281 281 279 283 284 282 284 286 284 282